カタログに戻る

ARIANE 44L DEB

LostHEO
NORAD 24722·DEBRIS·🇫🇷 France

打ち上げ Jan 15, 1991 から Guiana Space Centre

Loading…

次のパス (今後24時間)

TLE

古いSource: Space-Track

元期: Apr 16, 2025, 23:53 UTC

1 24722U 91003E   25106.99560617  .00001440  00000-0  62769-2 0  9998
2 24722   7.1662 311.0575 6540061 281.5406  16.2222  3.09336397125366

AllMySatでARIANE 44L DEBをリアルタイム追跡

Download on the App Store